STARLINK-11248 [DTC]

Last updated on Tue Oct 01 2024 00:02:04 GMT+0000 (Coordinated Universal Time)

1 60914U 24154M 24273.80009839 .00004769 00000+0 33107-4 0 9994 2 60914 53.1605 204.7131 0001671 60.8611 299.2577 15.76740964 5899
UTC large
Height (km)
Speed (km/s)
/
Latitude / Longitude
Inclination (degrees)
Orbital Period (minutes)
Azimuth
Elevation
Range (km)
Doppler Factor

Next 0 passes for location: London (51.5072 / 0.1276)

Sorry there are no passes over London.